CO32 weather

Capri Heliport
Denver, Colorado, United States

Public forecast

Using degrees Fahrenheit for public forecast. Weather courtesy of forecast.io.

METAR (pilot weather report)

Closest report is Rocky Mountain Metropolitan Airport, 7.3 nm (13.5 km) WNW. Retrieved 2019/04/26 01:47 UTC (15 minutes ago):

KBJC 260147Z 09006KT 30SM FEW070 SCT220 14/M02 A3019

TAF (pilot weather forecast)

Forecast is more than 12 hours old.

Closest forecast is Rocky Mountain Metropolitan Airport, 7.3 nm (13.5 km) WNW. Retrieved 2019/04/25 00:42 UTC (1 day ago):

TAF KBJC 252339Z 2600/2624 11007KT P6SM FEW070 SCT220 FM260400 16006KT P6SM FEW220 FM260800 30007KT P6SM SKC FM261400 20006KT P6SM SCT200 FM261900 29010KT P6SM SCT080 BKN220 FM262100 28013KT P6SM VCTS SCT060CB BKN120 PROB30 2622/2624 VRB23G33KT -TSRA BKN060CB